Weather in Bukhovoye

Russia / Lipetsk Oblast     53°03′55″N   39°58′35″E
temp.,
°C
wind,
m/s
gust,
m/s
humid.,
%
clouds,
%
prec.,
mm/h
press.,
hPa
HPBL,
m
8 march, mon
mon800:00−3w61471100 2.0 1000968
03:00−6wsw4138084 2.0 1002462
06:00−6wsw412870 0.0 1001420
09:00−4wsw6128025 0.0 1001765
12:00−2w7117366 0.1 10021325
15:00−3wnw6107283 0.2 10041354
18:00−6wnw388797 0.1 1006361
21:00−9wnw239050 0.1 100968
9 march, tue
tue900:00−11wnw22920 0.0 101026
03:00−12nw229421 0.0 101146
06:00−11nnw259497 0.1 1011210
09:00−11n368992 0.1 1013283
12:00−9nnw468070 0.0 1014488
15:00−9nnw468082 0.0 1016617
18:00−12nw4889100 0.0 1017496
21:00−14nw399071 0.0 1020361
10 march, wed
wed1000:00−15nnw38910 0.0 1021268
03:00−17nw369444 0.0 1023227
06:00−19nw389284 0.0 1024272
09:00−19nnw368772 0.0 1026284
12:00−16nnw357963 0.0 1026415
15:00−15nnw357744 0.0 1027477
18:00−17nnw358854 0.0 1027400
21:00−19n259227 0.0 1029177
11 march, thu
thu1100:00−20n24940 0.0 1030133
03:00−21n22940 0.0 103189
06:00−22n12930 0.0 103279
09:00−18nne12770 0.0 1033216
12:00−12n11610 0.0 1033480
15:00−11nw11620 0.0 1033703
18:00−15nnw11870 0.0 103326
21:00−17sse12890 0.0 103332
12 march, fri
fri1200:00−18sse24830 0.0 1033133
03:00−18sse37780 0.0 1032217
06:00−19sse48770 0.0 1032247
09:00−16sse597415 0.0 1030319
12:00−11sse51165100 0.0 1028432
15:00−9sse61372100 0.0 1026542
18:00−9sse71572100 0.0 1023715
21:00−9sse71664100 0.0 1021814